Regional Weather Roundup
Issued by NWS San Diego, CA

Home | Current Version | Previous Version | Text Only | Print | Product List | Glossary On
Versions: 1 2 3 4 5 6 7 8 9 10 11 12 13 14 15 16 17 18 19 20 21 22 23 24 25 26 27 28 29 30 31 32 33 34 35 36 37 38 39 40 41 42 43 44 45 46 47 48 49 50
000
ASUS46 KSGX 010010
RWRSGX

SAN DIEGO HOURLY WEATHER ROUNDUP
NATIONAL WEATHER SERVICE SAN DIEGO CA
500 PM PDT TUE SEP 30 2014

NOTE: "FAIR" INDICATES FEW OR NO CLOUDS BELOW 12,000 FEET WITH NO
SIGNIFICANT WEATHER AND/OR OBSTRUCTIONS TO VISIBILITY.

CAZ042-043-060-061-PZZ750-775-010100-

GREATER SAN DIEGO AREA

CITY           SKY/WX    TMP DP  RH WIND       PRES   REMARKS
LINDBERGH FLD  MOSUNNY   76  60  57 VRB3      29.79S
POINT LOMA       N/A     76  64  66 NW7         N/A
NATIONAL CITY    N/A     75  67  75 SW9       29.78F
CHULA VISTA      N/A     75  66  74 W6        29.71F
IMPERIAL BEACH MOSUNNY   74  66  76 W8        29.78F
BROWN FIELD    SUNNY     75  62  64 W8        29.79S
MIRAMAR MCAS   MOSUNNY   76  61  59 W7        29.78S
MONTGOMERY FLD SUNNY     76  64  66 W8        29.78S

$$

NORTH SAN DIEGO COUNTY

CITY           SKY/WX    TMP DP  RH WIND       PRES   REMARKS
CAMP PENDLETON SUNNY     77  58  51 SW10      29.75F
OCEANSIDE AP   SUNNY     75  65  70 W9        29.76S
OCEANSIDE HBR    N/A     72  68  87 NW7       29.79F
VISTA            N/A     78  64  63 SW3       29.75S
CARLSBAD       SUNNY     74  62  66 W9        29.77S
DEL MAR          N/A     72  68  87 CALM      29.80S
LA JOLLA SCRIP   N/A     72  69  89 CALM      29.75S
FALLBROOK        N/A     80  59  47 S7        29.76S
ESCONDIDO        N/A     80  60  50 W7        29.78S
SAN MARCOS       N/A     78  64  60 W12       29.74F
POWAY            N/A     82  61  47 W2        29.77S

$$

EAST SAN DIEGO COUNTY

CITY           SKY/WX    TMP DP  RH WIND       PRES   REMARKS
RAMONA         SUNNY     81  52  36 W9        29.80S
SANTEE LAKES     N/A     82  64  54 W12       29.77S
LA MESA          N/A     79  65  62 W3        29.71F
JAMUL            N/A     81  65  57 CALM      29.76S
MT. LAGUNA OBS   N/A     68  41  38 CALM      29.60F
CAMPO            N/A     81  48  31 SW15G21   29.81R

$$

ORANGE COUNTY AND THE LOS ANGELES BASIN

CITY           SKY/WX    TMP DP  RH WIND       PRES   REMARKS
JOHN WAYNE AP  SUNNY     81  62  52 SW10      29.76S
LAGUNA BEACH     N/A     77  69  76 S3        29.73S
LAKE FOREST FR   N/A     85  48  27 CALM      29.66S
SANTA ANA        N/A     83  63  51 S3        29.71S
HUNTINGTON BCH   N/A     77  68  72 SW6       29.78F
LOS ALAMITOS   SUNNY     82  61  49 S8        29.75F
FULLERTON      SUNNY     84  55  36 S7        29.74S
LONG BEACH     SUNNY     83  54  36 NW10      29.75S
L.A. AP        SUNNY     72  64  76 W15       29.77S
L.A. DOWNTOWN  SUNNY     80  55  42 VRB3      29.75F

$$

THE INLAND EMPIRE

CITY           SKY/WX    TMP DP  RH WIND       PRES   REMARKS
CORONA         SUNNY     87  49  26 W10G18    29.76S
CHINO          SUNNY     87  48  25 SW12      29.76F
ONTARIO        SUNNY     88  47  24 W10       29.76F
SAN BERNARDINO SUNNY     86  39  19 SW10      29.77F
RIVERSIDE AP   SUNNY     87  45  23 W15G22    29.76S
RIV CYN CREST    N/A     86  56  36 NW6       29.75S
MORENO VALLEY    N/A     88  51  27 CALM      28.97
MARCH ARB      SUNNY     85  46  25 NW14      29.79S
HORSETHIEF CYN   N/A     87  42  20 NW5       29.76F
PERRIS           N/A     86  47  25 W8        29.76F
MENIFEE          N/A     91  50  24 W6        29.81S
HEMET EAST       N/A     89  38  16 CALM      29.73F
FRENCH VALLEY  FAIR      86  48  26 S12       29.78S
TEMECULA         N/A     83  56  39 SW7       29.71R

$$

SAN BERNARDINO AND RIVERSIDE COUNTY MOUNTAINS

CITY           SKY/WX    TMP DP  RH WIND       PRES   REMARKS
BIG BEAR AP    SUNNY     64  32  29 W12       30.06S
ANGELUS OAKS     N/A     68  38  32 CALM      29.75F
PINE COVE        N/A     66  36  33 W2        29.74F

$$

SOUTHERN DESERT INCLUDING THE COACHELLA VALLEY

CITY           SKY/WX    TMP DP  RH WIND       PRES   REMARKS
PALM SPRINGS   SUNNY     96  34  11 SE10      29.69F
THOUSAND PALMS   N/A     94  36  13 E6        29.64F
PALM DESERT      N/A     96  43  15 CALM      29.14S
THERMAL        SUNNY     93  42  17 SE8       29.65F
BLYTHE         SUNNY     91  35  13 SE8       29.70F
IMPERIAL AP    SUNNY     93  41  16 SE9       29.66F
EL CENTRO NAS  SUNNY     94  38  14 SE6       29.67F
YUMA AZ        SUNNY     94  36  13 S8        29.70S
MEXICALI       SUNNY     95  34  11 S3        29.69

$$

UPPER DESERT

CITY           SKY/WX    TMP DP  RH WIND       PRES   REMARKS
VICTORVILLE AP SUNNY     84  32  15 S5        29.82F
HESPERIA         N/A     81  43  25 W14       29.86F
APPLE VALLEY     N/A     82  40  22 S3        29.89S
PALMDALE       SUNNY     85  30  13 SW21      29.81F
LANCASTER      SUNNY     84  37  18 SW18G25   29.81S
EDWARDS AFB    SUNNY     87  33  14 SW17G24   29.77R
DAGGETT        SUNNY     88  33  14 VRB3      29.76F
29 PALMS N     SUNNY     86  34  15 CALM      29.83F
NEEDLES        SUNNY     93  34  12 E9        29.71F

$$

REGIONAL REPORTS

CITY           SKY/WX    TMP DP  RH WIND       PRES   REMARKS
SANTA BARBARA  SUNNY     70  62  76 S6        29.75F
SANDBERG       SUNNY     73  43  33 N14       29.96S
MT. WILSON       N/A     68  41  37 SW9         N/A
LAS VEGAS NV   SUNNY     86  36  16 SE6       29.73F
PHOENIX AZ     MOSUNNY   87  33  14 SW7       29.75F
TIJUANA        SUNNY     75  57  53 W8        29.80F
ENSENADA NW      N/A     71  32  23 W15       29.76F

$$

OFFSHORE ISLANDS

CITY           SKY/WX    TMP DP  RH WIND       PRES   REMARKS
CATALINA ARPT  SUNNY     73  54  51 W9        29.83F
SAN CLEMENTE I SUNNY     71  62  73 W9        29.80F
SAN NICOLAS IS SUNNY    N/A N/A N/A W18       29.80F

$$

MARINE AND OFFSHORE BUOY REPORTS

STATION/POSITION SKY/WX   TEMP    WIND        PRES    SWELL
                          AIR SEA DIR/SP/G            HT/PER/DIR
                          (F)     (DEG/KT/KT) (MB)    (FT/S/D)
TANNER BANKS               67 69  320/ 17/ 23 1009.1F   3/340/14
S CLEMENTE BASIN           71 72  270/ 12/ 14 1008.1F   3/300/ 7
SAN NICOLAS IS.               65                N/A     3/300/13
SO. S. ROSA ISLA           63 64  320/ 23/ 29 1008.4F   5/13
W. S. BARBARA CH           61 60  320/ 21/ 27 1008.3F   5/290/ 8
S. MONICA BASIN            69 71  280/  8/ 10 1007.9F   2/270/ 9
S PEDRO CHANNEL               70                N/A     2/190/12
DANA POINT                    71                N/A     2/170/11
CMP PENDLETON NS              70                N/A     2/220/17
OCEANSIDE OFFSHR              70                N/A     2/180/12
TORREY PINES OTR              72                N/A     2/210/11
LA JOLLA 1                 73 70  260/  2/  3 1008.4S
MISSION BAY BUOY              73                N/A     2/200/14
SAN DIEGO BAY                 74              1008.9F
POINT LOMA SOUTH              73                N/A     2/170/12

$$



USA.gov is the U.S. government's official web portal to all federal, state and local government web resources and services.